File timestamp: Thu Aug 25 03:00:00 2016, Internal temp: 20.904541015625
1472094001, 0.00910051446408033, -0.0127117857336998, 0.0197407901287079, 33634, 32465, 23201, -52.2025375366211
1472094002, 0.0103321662172675, -0.013142729178071, 0.0198920555412769, 33628, 32472, 23207, NaN
1472094003, 0.0106598008424044, -0.0136577654629946, 0.0203872285783291, 33631, 32481, 23202, NaN
1472094004, 0.00936925131827593, -0.0129877878353, 0.0200811456888914, 33616, 32461, 23201, NaN
1472094004.98, 0.00692287646234035, -0.0137957315891981, 0.0198570564389229, 33634, 32463, 23206, NaN
1472094005.98, 0.00405328394845128, -0.0138574186712503, 0.0192028935998678, 33633, 32470, 23197, NaN
1472094006.98, 0.000931068847421557, -0.0142300752922893, 0.0192771479487419, 33635, 32460, 23193, NaN
1472094007.98, -0.00149977987166494, -0.0140601489692926, 0.0189811568707228, 33626, 32466, 23195, NaN
1472094008.98, -0.00238275388255715, -0.013880293816328, 0.0184711217880249, 33617, 32469, 23201, NaN
1472094009.98, -0.00345232803374529, -0.0140814948827028, 0.0179204922169447, 33629, 32469, 23197, NaN
1472094010.98, -0.00368546461686492, -0.0139542892575264, 0.0175604987889528, 33624, 32474, 23205, NaN
1472094011.98, -0.00332048046402633, -0.0141189778223634, 0.0176633633673191, 33634, 32469, 23204, NaN
1472094012.98, -0.00258797057904303, -0.0143070751801133, 0.0174557510763407, 33622, 32470, 23207, NaN
1472094013.99, -0.00127354636788368, -0.0147941242903471, 0.0168842989951372, 33623, 32463, 23204, NaN
1472094013.99, 0.000420545286033303, -0.0159347839653492, 0.0172579567879438, 33622, 32472, 23210, NaN
1472094014.998, 0.00241479929536581, -0.0157949030399323, 0.0170350149273872, 33633, 32471, 23195, NaN
1472094015.998, 0.00390828354284167, -0.0168821848928928, 0.0179254803806543, 33634, 32470, 23210, NaN
1472094016.998, 0.00652600266039371, -0.017523480579257, 0.0179893430322409, 33625, 32465, 23200, NaN
1472094017.998, 0.00832095742225647, -0.0183362327516079, 0.017910024151206, 33620, 32473, 23209, NaN
1472094017.998, 0.00804955698549747, -0.0176193062216043, 0.0176641382277012, 33632, 32473, 23204, NaN
1472094019.006, 0.00905543565750122, -0.0173346381634474, 0.0179435964673758, 33626, 32479, 23204, NaN
1472094020.006, 0.0114819817245007, -0.0171534046530724, 0.0182093754410744, 33623, 32466, 23212, NaN
1472094021.006, 0.0140384826809168, -0.0175835341215134, 0.0187242366373539, 33632, 32488, 23203, NaN
1472094022.006, 0.0163784623146057, -0.0178756918758154, 0.0192633084952831, 33621, 32466, 23202, NaN
1472094022.006, 0.0185515489429235, -0.0189185794442892, 0.0198062602430582, 33634, 32471, 23203, NaN
1472094023.012, 0.0198059864342213, -0.0185680389404297, 0.0200973395258188, 33629, 32470, 23206, NaN
1472094024.012, 0.0209726952016354, -0.0184737090021372, 0.0205164737999439, 33636, 32469, 23202, NaN
1472094025.012, 0.0215494763106108, -0.0186743773519993, 0.0203588828444481, 33622, 32462, 23206, NaN
1472094026.012, 0.0218950789421797, -0.0192250739783049, 0.0199456959962845, 33619, 32478, 23203, NaN
1472094026.012, 0.0222064033150673, -0.0197463985532522, 0.0198753029108047, 33622, 32475, 23208, NaN
1472094027.016, 0.021414527669549, -0.0188502706587315, 0.0194472707808018, 33636, 32472, 23188, NaN
1472094028.016, 0.0205134265124798, -0.018429160118103, 0.0183178056031466, 33634, 32482, 23188, NaN
1472094029.016, 0.0185221135616302, -0.0194931700825691, 0.018716199323535, 33623, 32470, 23201, NaN
1472094030.016, 0.0158062037080526, -0.0194792002439499, 0.0191289950162172, 33631, 32470, 23204, NaN
1472094031.016, 0.0129019543528557, -0.0195616502314806, 0.0188259072601795, 33624, 32471, 23184, NaN
1472094032.016, 0.0100454082712531, -0.0193105060607195, 0.0187215618789196, 33618, 32474, 23209, NaN
1472094033.016, 0.00670434068888426, -0.0191806592047215, 0.0180570632219315, 33632, 32474, 23213, NaN
1472094034.016, 0.00336837163195014, -0.0189153198152781, 0.0180920027196407, 33637, 32461, 23190, NaN
1472094035.016, 0.000909463386051357, -0.0189441312104464, 0.0181423127651215, 33619, 32480, 23210, NaN
1472094036.016, -0.000620052451267838, -0.0187292937189341, 0.0180339980870485, 33631, 32479, 23202, NaN
1472094037.016, -0.00165471213404089, -0.0187833998352289, 0.0179000794887543, 33623, 32478, 23208, NaN
1472094038.016, -0.00278296624310315, -0.0181932430714369, 0.0181553065776825, 33641, 32465, 23199, NaN
1472094039.024, -0.0046771289780736, -0.0178414545953274, 0.0191631186753511, 33633, 32458, 23190, NaN
1472094040.024, -0.00560663780197501, -0.0180639531463385, 0.0183065608143806, 33640, 32473, 23195, NaN
1472094040.024, -0.00640303734689951, -0.0185339879244566, 0.0185175929218531, 33635, 32467, 23196, NaN
1472094041.032, -0.0080717271193862, -0.018574558198452, 0.0178274270147085, 33639, 32465, 23194, NaN
1472094042.032, -0.00930798519402742, -0.0191604252904654, 0.0179731771349907, 33614, 32478, 23210, NaN
1472094043.032, -0.0106308907270432, -0.0196320377290249, 0.0180095676332712, 33627, 32473, 23196, NaN
1472094044.032, -0.0121413869783282, -0.0210985485464334, 0.0179750323295593, 33634, 32467, 23184, NaN
1472094044.032, -0.012467953376472, -0.0211297888308764, 0.0180055927485228, 33634, 32482, 23192, NaN
1472094045.038, -0.0125020025297999, -0.0217194333672523, 0.0170070473104715, 33619, 32467, 23203, NaN
1472094046.038, -0.0133120752871037, -0.0211466047912836, 0.0163496173918247, 33636, 32473, 23199, NaN
1472094047.038, -0.0136750647798181, -0.0203863549977541, 0.0151390824466944, 33631, 32472, 23211, NaN
1472094048.038, -0.0146547090262175, -0.0198795758187771, 0.0154444426298141, 33618, 32475, 23215, NaN
1472094049.038, -0.0166487731039524, -0.0195912607014179, 0.0155375115573406, 33639, 32480, 23192, NaN
1472094050.038, -0.0176955983042717, -0.019378025084734, 0.015139589086175, 33624, 32486, 23200, NaN
1472094051.038, -0.0182453226298094, -0.0197632871568203, 0.0154654569923878, 33637, 32470, 23193, NaN
1472094052.038, -0.0183887053281069, -0.020578321069479, 0.0150900520384312, 33627, 32475, 23211, NaN
1472094053.038, -0.0174798332154751, -0.0200851261615753, 0.0146771101281047, 33621, 32456, 23201, NaN
1472094054.038, -0.0154416924342513, -0.0198188032954931, 0.0146343037486076, 33631, 32466, 23211, NaN
1472094055.038, -0.0134326852858067, -0.0202822294086218, 0.0143559304997325, 33629, 32462, 23201, -59.0312614440918
1472094056.038, -0.0115891378372908, -0.0201303362846375, 0.0143857458606362, 33620, 32474, 23205, NaN
1472094057.038, -0.0101239373907447, -0.0206511281430721, 0.0133485468104482, 33626, 32486, 23192, NaN
1472094058.038, -0.00774911884218454, -0.0216445606201887, 0.0131981633603573, 33622, 32470, 23206, NaN
1472094059.038, -0.00497361598536372, -0.0217770952731371, 0.0134596275165677, 33628, 32472, 23203, NaN
1472094060.038, -0.000727135571651161, -0.0218330733478069, 0.0135535225272179, 33615, 32478, 23203, NaN
1472094061.038, 0.00364815862849355, -0.0207697432488203, 0.012513842433691, 33628, 32478, 23204, NaN
1472094062.038, 0.00685841357335448, -0.0207806676626205, 0.013006217777729, 33630, 32473, 23205, NaN
1472094063.038, 0.00954308453947306, -0.0207194145768881, 0.0127265146002173, 33629, 32462, 23192, NaN
1472094064.038, 0.0120401224121451, -0.0208897385746241, 0.012963755056262, 33647, 32479, 23191, NaN
1472094065.038, 0.0138658154755831, -0.0214717201888561, 0.0124872252345085, 33637, 32457, 23189, NaN
1472094066.046, 0.0151415029540658, -0.0212903749197721, 0.0126355867832899, 33633, 32479, 23202, NaN
1472094067.046, 0.0147802457213402, -0.0216466281563044, 0.012854509986937, 33627, 32474, 23195, NaN
1472094067.046, 0.0137436715885997, -0.0220285542309284, 0.0140484096482396, 33634, 32474, 23195, NaN
1472094068.054, 0.0122173521667719, -0.0225655753165483, 0.0137855764478445, 33624, 32480, 23199, NaN
1472094069.054, 0.0102732833474874, -0.0226385742425919, 0.0133702456951141, 33628, 32471, 23197, NaN
1472094070.054, 0.00814769323915243, -0.0229617785662413, 0.0129207661375403, 33628, 32484, 23196, NaN
1472094071.054, 0.00731542427092791, -0.0231884215027094, 0.0129784131422639, 33622, 32487, 23186, NaN
1472094071.054, 0.00613353820517659, -0.0237406715750694, 0.0130601795390248, 33616, 32465, 23203, NaN
1472094072.06, 0.00564830424264073, -0.0236724559217691, 0.0132139679044485, 33618, 32484, 23198, NaN
1472094073.06, 0.00626198574900627, -0.0239284001290798, 0.012817682698369, 33637, 32475, 23196, NaN
1472094074.06, 0.00647410564124584, -0.0238580275326967, 0.0128846615552902, 33620, 32468, 23202, NaN
1472094075.06, 0.00623868545517325, -0.0240497104823589, 0.0122170140966773, 33626, 32475, 23208, NaN
1472094075.06, 0.00438186433166265, -0.0235941167920828, 0.011560957878828, 33629, 32475, 23203, NaN
1472094076.066, 0.00216862000524998, -0.0236667022109032, 0.0118804397061467, 33623, 32472, 23195, NaN
1472094077.066, 0.000736600835807621, -0.0239416752010584, 0.0103882439434528, 33623, 32472, 23203, NaN
1472094078.066, -0.000396410265238956, -0.0241360813379288, 0.0104697048664093, 33632, 32475, 23200, NaN
1472094079.066, -0.00155132915824652, -0.0241055320948362, 0.0116115370765328, 33619, 32469, 23197, NaN
1472094080.066, -0.00254729203879833, -0.0243139658123255, 0.0116785857826471, 33631, 32460, 23205, NaN
1472094081.066, -0.0033517733681947, -0.0245503466576338, 0.0125276930630207, 33639, 32479, 23202, NaN
1472094082.066, -0.00323197245597839, -0.0247411411255598, 0.0126862460747361, 33633, 32466, 23189, NaN
1472094083.066, -0.00274229608476162, -0.0249016862362623, 0.0125918909907341, 33629, 32479, 23198, NaN
1472094084.066, -0.00153195951133966, -0.0244856383651495, 0.0119042908772826, 33635, 32464, 23204, NaN
1472094085.066, -0.000529260374605656, -0.0238001998513937, 0.0117571158334613, 33620, 32471, 23205, NaN
1472094086.066, -0.000403264013584703, -0.0238364599645138, 0.012612733989954, 33611, 32471, 23203, NaN
1472094087.066, -0.000487861252622679, -0.0229535922408104, 0.0133364321663976, 33609, 32472, 23220, NaN
1472094088.066, -0.000174459040863439, -0.0242840684950352, 0.013362399302423, 33621, 32470, 23212, NaN
1472094089.066, 8.91702438821085e-05, -0.0244069471955299, 0.0140352630987763, 33624, 32477, 23211, NaN
1472094090.066, 0.000134814894408919, -0.0247687064111233, 0.0138587933033705, 33622, 32472, 23194, NaN
1472094091.066, 0.00220684707164764, -0.0256767310202122, 0.0146758174523711, 33639, 32464, 23202, NaN
1472094092.076, 0.0165155176073313, -0.0254284702241421, 0.0144681008532643, 33630, 32486, 23193, NaN
1472094093.076, 0.0406059361994267, -0.0250076428055763, 0.0146757047623396, 33636, 32482, 23194, NaN
1472094094.076, 0.0713395997881889, -0.0246613770723343, 0.0143952751532197, 33630, 32472, 23203, NaN
1472094094.076, 0.105976417660713, -0.0250773746520281, 0.0142375156283379, 33616, 32481, 23202, NaN
1472094095.084, 0.142645761370659, -0.0256453137844801, 0.0133400587365031, 33630, 32459, 23203, NaN
1472094096.084, 0.178881242871284, -0.0257799848914146, 0.013982068747282, 33618, 32465, 23210, NaN
1472094097.084, 0.21342208981514, -0.0260866098105907, 0.0139964334666729, 33631, 32473, 23200, NaN
1472094098.084, 0.246669188141823, -0.0265329256653786, 0.0141556011512876, 33629, 32477, 23209, NaN
1472094098.084, 0.277105063199997, -0.026759497821331, 0.0142545644193888, 33625, 32472, 23198, NaN
1472094099.09, 0.304681658744812, -0.0261395052075386, 0.0139868296682835, 33611, 32474, 23211, NaN
1472094100.09, 0.327605396509171, -0.0257732290774584, 0.0143351331353188, 33630, 32478, 23209, NaN
1472094101.09, 0.346631914377213, -0.0259243547916412, 0.0133673986420035, 33624, 32462, 23195, NaN
1472094102.09, 0.361739993095398, -0.0260267592966557, 0.0137379448860884, 33626, 32462, 23214, NaN
1472094102.09, 0.372934550046921, -0.0252541191875935, 0.0146563453599811, 33629, 32474, 23194, NaN
1472094103.094, 0.3808833360672, -0.0257439333945513, 0.0147898001596332, 33623, 32477, 23209, NaN
1472094104.094, 0.38409760594368, -0.0251585599035025, 0.0145895648747683, 33638, 32482, 23203, NaN
1472094105.094, 0.382423341274261, -0.0254301782697439, 0.0147671876475215, 33626, 32480, 23203, NaN
1472094106.094, 0.377077400684357, -0.0254148822277784, 0.0152050666511059, 33618, 32467, 23214, NaN
1472094107.094, 0.368221998214722, -0.0251682233065367, 0.0158559493720531, 33632, 32466, 23194, NaN
1472094108.094, 0.356218367815018, -0.0256130527704954, 0.0161067582666874, 33621, 32466, 23192, NaN
1472094109.094, 0.340922445058823, -0.0261147301644087, 0.0158344022929668, 33627, 32467, 23188, -61.2767868041992
1472094110.094, 0.323773324489594, -0.0264958590269089, 0.01659831777215, 33632, 32472, 23207, NaN
1472094111.094, 0.303838282823563, -0.0266085211187601, 0.0162148922681808, 33627, 32472, 23201, NaN
1472094112.094, 0.283690184354782, -0.0263494998216629, 0.015777138993144, 33630, 32467, 23206, NaN
1472094113.094, 0.26210156083107, -0.0257829856127501, 0.0163231678307056, 33611, 32473, 23191, NaN
1472094114.094, 0.239775493741035, -0.0258344579488039, 0.0174924656748772, 33631, 32457, 23201, NaN
1472094115.094, 0.218125849962234, -0.0257414001971483, 0.0176585391163826, 33630, 32470, 23200, NaN
1472094116.094, 0.19706417620182, -0.0256168749183416, 0.0175911840051413, 33633, 32461, 23190, NaN
1472094117.094, 0.176533803343773, -0.0268935412168503, 0.0178975686430931, 33631, 32469, 23203, NaN
1472094118.094, 0.155786976218224, -0.027359277009964, 0.0177404005080462, 33615, 32482, 23214, NaN
1472094119.104, 0.135790720582008, -0.0278141051530838, 0.0172495376318693, 33623, 32469, 23205, NaN
1472094120.104, 0.116756580770016, -0.0289089474827051, 0.0166525337845087, 33629, 32460, 23202, NaN
1472094120.104, 0.098517119884491, -0.0283671002835035, 0.017363153398037, 33625, 32468, 23200, NaN
1472094121.112, 0.0812074020504951, -0.029007175937295, 0.0178772564977407, 33627, 32476, 23195, NaN
1472094122.112, 0.0639129057526588, -0.0289271883666515, 0.0179402902722359, 33633, 32472, 23206, NaN
1472094123.112, 0.0472614504396915, -0.0286930724978447, 0.0178830232471228, 33635, 32473, 23192, NaN
1472094124.112, 0.0314937978982925, -0.028182240203023, 0.017294017598033, 33631, 32478, 23194, NaN
1472094124.112, 0.0171800218522549, -0.027633486315608, 0.0179312229156494, 33622, 32468, 23209, NaN
1472094125.118, 0.00487333536148071, -0.0278060529381037, 0.0177823938429356, 33628, 32471, 23201, NaN
1472094126.118, -0.00651958724483848, -0.0281640719622374, 0.0177532192319632, 33618, 32468, 23208, NaN
1472094127.118, -0.0179842989891768, -0.0281740929931402, 0.0172294396907091, 33611, 32478, 23203, NaN
1472094128.118, -0.0279249977320433, -0.0272440612316132, 0.0164679046720266, 33632, 32471, 23206, NaN
1472094129.118, -0.0351644158363342, -0.0280864406377077, 0.0164477657526731, 33616, 32468, 23215, NaN
1472094130.118, -0.0417543537914753, -0.0289525035768747, 0.0159335695207119, 33618, 32472, 23211, NaN
1472094131.118, -0.0471281483769417, -0.0282907485961914, 0.0156700201332569, 33635, 32470, 23202, NaN
1472094132.118, -0.0514439828693867, -0.0278740115463734, 0.0162496790289879, 33613, 32471, 23207, NaN
1472094133.118, -0.0535380020737648, -0.0280574578791857, 0.0163829326629639, 33628, 32465, 23202, NaN
1472094134.118, -0.0545181147754192, -0.0285126082599163, 0.0161522775888443, 33629, 32480, 23197, NaN
1472094135.118, -0.0550213754177094, -0.0279618725180626, 0.0159361436963081, 33623, 32463, 23209, NaN
1472094136.118, -0.0550028309226036, -0.0284385550767183, 0.0155440662056208, 33626, 32460, 23203, NaN
1472094137.118, -0.0534156747162342, -0.0288869943469763, 0.0157153848558664, 33643, 32468, 23200, NaN
1472094138.118, -0.0510749220848083, -0.0287480615079403, 0.0160066317766905, 33634, 32467, 23199, NaN
1472094139.118, -0.0486055910587311, -0.0291718300431967, 0.0158787909895182, 33614, 32476, 23205, NaN
1472094140.118, -0.0459233447909355, -0.0287487581372261, 0.0169803239405155, 33643, 32465, 23192, NaN
1472094141.118, -0.0416935347020626, -0.0278430320322514, 0.0168725978583097, 33626, 32468, 23196, NaN
1472094142.118, -0.0375585965812206, -0.0281922686845064, 0.0173297673463821, 33628, 32471, 23201, NaN
1472094143.118, -0.0336012281477451, -0.027655690908432, 0.0178881343454123, 33629, 32478, 23201, NaN
1472094144.118, -0.03009994328022, -0.0280239805579185, 0.017494285479188, 33633, 32460, 23201, NaN
1472094145.118, -0.0265180766582489, -0.0274771992117167, 0.0165797341614962, 33625, 32467, 23210, NaN
1472094146.128, -0.0220828335732222, -0.0276719257235527, 0.0166247393935919, 33626, 32483, 23200, NaN
1472094147.128, -0.0169405620545149, -0.0276217348873615, 0.0168433357030153, 33633, 32465, 23186, NaN
1472094148.128, -0.0123817203566432, -0.0270028822124004, 0.0167679451406002, 33638, 32477, 23185, NaN
1472094148.128, -0.00728269945830107, -0.025961035862565, 0.0159749519079924, 33633, 32490, 23206, NaN
1472094149.136, -0.00295639527030289, -0.026841739192605, 0.014705877751112, 33621, 32470, 23202, NaN
1472094150.136, 0.000409565429436043, -0.0254885759204626, 0.0142370788380504, 33643, 32469, 23193, NaN
1472094151.136, 0.00254102144390345, -0.0244727786630392, 0.0144612742587924, 33620, 32470, 23201, NaN
1472094152.136, 0.00455854786559939, -0.0245994087308645, 0.0140887154266238, 33632, 32468, 23203, NaN
1472094152.136, 0.00635108584538102, -0.0238614305853844, 0.0148142734542489, 33630, 32474, 23205, NaN
1472094153.142, 0.00749460235238075, -0.024728337302804, 0.0146319437772036, 33628, 32465, 23203, NaN
1472094154.142, 0.00891332887113094, -0.0247434489428997, 0.0141690112650394, 33618, 32461, 23202, NaN
1472094155.142, 0.00976412650197744, -0.0256627667695284, 0.0145515045151114, 33631, 32472, 23210, NaN
1472094156.142, 0.00957666523754597, -0.0252744648605585, 0.0153758339583874, 33636, 32471, 23199, NaN
1472094156.142, 0.00935831479728222, -0.0251708254218102, 0.0158365312963724, 33613, 32474, 23208, NaN
1472094157.146, 0.00917737558484077, -0.0258383881300688, 0.0161818042397499, 33631, 32460, 23199, NaN
1472094158.146, 0.00998343341052532, -0.0250945314764977, 0.0165417492389679, 33628, 32464, 23213, NaN
1472094159.146, 0.0115847354754806, -0.0261364709585905, 0.0164277870208025, 33630, 32467, 23199, NaN
1472094160.146, 0.0123346792533994, -0.0256677102297544, 0.0167841762304306, 33639, 32475, 23189, NaN
1472094160.146, 0.0128263616934419, -0.0260717291384935, 0.0163893327116966, 33645, 32472, 23194, NaN
1472094161.148, 0.0126769738271832, -0.0268977861851454, 0.0158863291144371, 33631, 32476, 23200, NaN
1472094162.148, 0.010320539586246, -0.0269639398902655, 0.0165003575384617, 33623, 32479, 23197, NaN
1472094163.148, 0.00819876231253147, -0.0271572675555944, 0.0167882796376944, 33631, 32462, 23201, -55.959342956543
1472094164.148, 0.00604347791522741, -0.027500081807375, 0.0166089721024036, 33627, 32479, 23194, NaN
1472094165.148, 0.00326699391007423, -0.0269100870937109, 0.0162515472620726, 33615, 32466, 23208, NaN
1472094166.148, 2.42459354922175e-05, -0.0264174230396748, 0.0166013929992914, 33631, 32466, 23198, NaN
1472094167.148, -0.00446067051962018, -0.0257630553096533, 0.0169296152889729, 33626, 32471, 23206, NaN
1472094168.148, -0.00850892812013626, -0.0256566572934389, 0.0167871136218309, 33642, 32475, 23182, NaN
1472094169.148, -0.0116278063505888, -0.0254712402820587, 0.0173511821776628, 33632, 32473, 23200, NaN
1472094170.148, -0.0133363222703338, -0.0253147315233946, 0.0174679085612297, 33635, 32455, 23203, NaN
1472094171.156, -0.0136546157300472, -0.0254319719970226, 0.0178337804973125, 33634, 32469, 23200, NaN
1472094172.156, -0.012737825512886, -0.0244841128587723, 0.0182866044342518, 33627, 32472, 23199, NaN
1472094173.156, -0.0114255687221885, -0.0245443191379309, 0.0185438096523285, 33613, 32466, 23209, NaN
1472094173.156, -0.00936654582619667, -0.025421392172575, 0.0189522039145231, 33629, 32468, 23198, NaN
1472094174.164, -0.00667061889544129, -0.0254013258963823, 0.0193330310285091, 33627, 32491, 23196, NaN
1472094175.164, -0.00332886422984302, -0.0254206117242575, 0.019958209246397, 33627, 32470, 23206, NaN
1472094176.164, 0.000233601880609058, -0.0251182094216347, 0.0186983291059732, 33634, 32470, 23199, NaN
1472094177.164, 0.0040031080134213, -0.0247436203062534, 0.0183713473379612, 33635, 32463, 23194, NaN
1472094178.164, 0.00817674491554499, -0.0240601394325495, 0.0178377758711576, 33636, 32478, 23186, NaN
1472094179.164, 0.0130843408405781, -0.0234140790998936, 0.0177461039274931, 33624, 32473, 23201, NaN
1472094180.164, 0.0174977630376816, -0.0231434982270002, 0.0180316008627415, 33624, 32480, 23188, NaN
1472094181.164, 0.0217742156237364, -0.0239069852977991, 0.0174947883933783, 33627, 32464, 23204, NaN
1472094181.524, 0.0231541451066732, -0.0234428346157074, 0.0177635010331869, 33625, 32467, 23196, NaN
1472094182.524, 0.0266120377928019, -0.0242387671023607, 0.0178176984190941, 33627, 32471, 23205, NaN
1472094183.524, 0.0283287391066551, -0.0240520928055048, 0.0178103111684322, 33633, 32470, 23187, NaN
1472094184.524, 0.0284906215965748, -0.0237236954271793, 0.0178861171007156, 33622, 32460, 23204, NaN
1472094185.524, 0.0271606650203466, -0.0237585064023733, 0.0173179283738136, 33620, 32467, 23213, NaN
1472094186.524, 0.0244090929627419, -0.0232912916690111, 0.0173470769077539, 33628, 32482, 23202, NaN
1472094187.524, 0.0207985900342464, -0.0240104254335165, 0.0178070869296789, 33618, 32482, 23205, NaN
1472094188.524, 0.0171045269817114, -0.0241982564330101, 0.0177783686667681, 33629, 32472, 23192, NaN
1472094189.524, 0.0133511051535606, -0.0242920685559511, 0.0175091866403818, 33623, 32472, 23205, NaN
1472094190.524, 0.00870872568339109, -0.0246000997722149, 0.0175310019403696, 33638, 32474, 23202, NaN
1472094191.524, 0.00490038841962814, -0.0242496896535158, 0.0166569780558348, 33630, 32471, 23201, NaN
1472094192.524, 0.000652452581562102, -0.0248119533061981, 0.0166734419763088, 33616, 32464, 23194, NaN
1472094193.524, -0.00426207482814789, -0.024562144652009, 0.0160511117428541, 33614, 32469, 23204, NaN
1472094194.524, -0.00873071234673262, -0.0248644035309553, 0.0155118638649583, 33627, 32486, 23190, NaN
1472094195.524, -0.0118797477334738, -0.0240641608834267, 0.0151609955355525, 33621, 32477, 23203, NaN
1472094196.524, -0.0150599088519812, -0.0242673065513372, 0.0154485972598195, 33642, 32468, 23198, NaN
1472094197.524, -0.0190969910472631, -0.0242916997522116, 0.0154369547963142, 33627, 32476, 23198, NaN
1472094198.524, -0.0217425730079412, -0.0243167225271463, 0.0156675558537245, 33625, 32486, 23202, NaN
1472094199.532, -0.0222084075212479, -0.0241629388183355, 0.0154173681512475, 33616, 32470, 23192, NaN
1472094200.532, -0.0220049303025007, -0.0250701960176229, 0.015011434443295, 33628, 32475, 23201, NaN
1472094201.532, -0.0216873735189438, -0.0244652386754751, 0.0155179463326931, 33630, 32476, 23198, NaN
1472094201.532, -0.0209223106503487, -0.0235456321388483, 0.0154034253209829, 33633, 32467, 23199, NaN
1472094202.54, -0.0196241326630116, -0.0232160221785307, 0.015122571028769, 33620, 32466, 23199, NaN
1472094203.54, -0.0178295243531466, -0.023466918617487, 0.0142426555976272, 33628, 32470, 23191, NaN
1472094204.54, -0.0162750799208879, -0.022811945527792, 0.0148840025067329, 33617, 32465, 23215, NaN
1472094205.54, -0.0157173052430153, -0.022104000672698, 0.0145538961514831, 33641, 32477, 23192, NaN
1472094205.54, -0.0140899708494544, -0.0224110893905163, 0.0140342954546213, 33635, 32471, 23199, NaN
1472094206.546, -0.0121720405295491, -0.0225641708821058, 0.014644225127995, 33634, 32465, 23197, NaN
1472094207.546, -0.00901302695274353, -0.0227578170597553, 0.013705026358366, 33634, 32470, 23203, NaN
1472094208.546, -0.00648954976350069, -0.0224301628768444, 0.0139022143557668, 33634, 32484, 23194, NaN
1472094209.546, -0.00386707251891494, -0.0229758899658918, 0.0143697625026107, 33621, 32462, 23196, NaN
1472094209.546, -0.00190219841897488, -0.0237084720283747, 0.0137339932844043, 33607, 32476, 23204, NaN
1472094210.55, 0.000793949933722615, -0.0231460630893707, 0.0129220131784678, 33632, 32466, 23206, NaN